Theta_e
346 345 345 346 346 344 343 344 343 343 343 344 344 343 342 341 340 338 338 339 339 340 341 340 339 338 338 338 340 341 344 346 346 344 344 344 345 344 343 342 342 345
344 344 344 345 346 346 344 343 343 343 343 343 343 344 344 344 343 341 340 340 342 343 343 342 341 339 339 339 339 339 342 346 346 344 344 346 345 344 343 342 342 345
343 343 344 344 345 345 345 344 343 344 344 344 344 344 344 344 344 344 343 344 344 343 343 342 340 339 339 339 339 339 342 345 346 344 344 345 345 344 344 345 345 346
344 343 343 343 344 344 344 344 343 344 345 345 344 344 344 344 344 344 345 345 345 344 343 342 340 339 339 339 339 339 341 345 345 344 344 344 343 343 342 344 345 346
345 345 344 344 344 343 343 343 343 343 344 344 344 345 345 344 344 344 344 345 346 346 345 345 343 341 341 340 339 339 339 342 342 341 341 342 342 341 339 341 343 345
347 347 345 345 344 344 343 342 343 344 344 344 345 345 344 344 344 344 344 345 345 346 346 345 343 342 342 342 341 340 339 339 339 339 340 340 341 340 338 338 340 342
350 349 348 346 345 344 344 343 342 343 344 344 344 344 344 345 346 346 345 345 344 344 345 344 340 340 341 343 343 341 340 341 340 340 341 341 340 339 338 337 337 339
351 352 350 348 346 344 344 343 343 343 343 343 344 344 345 345 346 346 346 345 343 342 343 342 342 342 343 343 342 342 342 343 343 342 341 340 339 339 337 336 337 339
351 351 351 349 348 346 344 343 343 343 344 344 344 344 344 344 344 345 344 343 342 342 344 343 343 343 344 345 344 343 343 344 344 344 342 341 339 339 338 338 339 342
350 350 351 351 350 348 346 344 344 343 343 344 344 343 343 343 344 344 343 342 342 342 343 344 344 344 344 345 345 345 345 345 345 345 344 343 342 342 342 342 342 344
350 351 351 351 351 350 349 346 346 345 343 343 342 343 343 344 344 344 345 344 343 342 342 343 344 345 346 346 346 346 346 345 346 346 345 345 344 344 344 344 344 344
350 350 349 350 351 351 350 349 347 347 345 344 342 342 342 344 345 344 344 345 344 343 342 342 343 343 344 346 346 346 345 345 346 346 346 345 345 345 345 345 345 344
351 350 350 350 350 350 350 350 349 349 348 347 346 344 343 344 345 344 344 344 344 344 344 343 342 342 342 344 344 345 343 344 344 345 345 345 345 344 344 344 346 345
351 351 350 350 350 350 349 349 350 349 350 349 348 347 346 346 347 345 344 344 344 345 345 344 344 343 343 343 344 344 344 344 345 345 345 345 345 345 344 345 345 345
352 351 351 351 351 350 349 350 350 349 350 350 349 348 347 347 347 347 346 345 345 345 346 345 345 344 344 344 344 344 344 344 345 345 346 345 345 345 344 344 345 346
352 351 350 351 351 350 350 350 349 349 348 348 348 348 348 347 347 347 346 345 345 345 346 346 345 345 345 345 345 345 344 344 344 345 346 346 345 345 345 345 346 346
351 350 350 350 350 351 351 349 348 347 344 344 346 346 346 347 347 348 347 346 345 345 345 346 345 345 345 345 345 346 345 345 345 345 345 345 345 345 345 345 346 346
347 347 346 347 348 350 351 350 348 347 344 342 343 343 343 346 346 347 347 346 346 346 345 346 346 345 346 345 345 345 345 346 346 346 346 345 345 345 345 345 346 346
344 344 344 344 344 344 346 347 348 348 347 346 346 344 343 345 347 347 347 347 347 347 346 346 346 346 345 346 345 344 345 345 345 345 345 345 345 345 346 346 346 346
343 343 343 345 344 344 343 344 344 345 345 345 346 345 345 346 347 347 349 349 348 347 347 346 346 346 346 346 345 345 345 345 345 344 345 345 346 346 347 347 347 347
346 346 348 349 349 348 346 345 345 344 344 344 344 344 344 344 344 345 348 350 349 349 349 349 348 347 347 347 347 347 347 346 345 344 344 345 346 346 347 348 348 348
352 351 352 353 353 351 350 349 349 348 348 347 347 345 344 344 345 347 349 351 351 350 350 351 350 350 350 350 349 349 349 348 346 345 345 345 345 346 346 347 347 348
352 352 353 354 353 352 352 351 351 351 351 350 351 349 349 349 349 350 351 351 351 350 350 351 351 351 352 352 351 351 350 350 349 348 347 347 346 346 346 346 347 347
351 351 351 351 351 350 351 350 351 350 350 350 351 350 350 349 349 350 350 350 350 350 350 351 350 351 351 351 350 350 350 351 351 351 349 348 347 346 346 346 347 347
350 350 349 350 351 351 350 350 350 349 349 348 349 349 348 348 348 349 349 349 349 349 349 349 349 349 349 349 350 350 350 350 351 350 350 348 347 346 346 346 347 347
350 350 349 350 350 350 350 350 350 349 348 348 347 348 348 348 348 348 349 349 349 349 348 348 348 348 348 349 349 349 350 349 350 350 349 348 348 348 348 348 347 348
Wind_Speed
23 25 27 29 29 31 31 28 26 25 25 23 21 19 18 19 21 23 23 21 20 20 19 18 17 17 17 17 18 19 20 19 18 16 14 13 12 13 14 14 13 13
21 23 27 29 29 30 32 30 27 26 25 25 24 21 19 19 18 20 22 21 20 20 20 18 17 17 17 17 19 21 21 21 19 17 15 14 14 14 13 12 11 13
20 22 25 29 29 30 32 32 30 27 24 24 24 21 20 20 19 19 19 19 20 20 20 19 18 18 18 18 20 21 21 22 20 18 17 16 15 14 13 11 10 10
20 20 23 26 28 29 31 32 32 30 26 23 22 21 21 21 20 20 20 19 19 18 18 18 19 19 18 19 20 21 22 23 22 20 19 18 17 15 14 13 12 10
19 19 19 22 24 27 30 32 32 32 29 24 21 22 22 22 21 21 22 21 20 18 17 18 19 19 18 18 19 21 22 23 23 22 21 20 18 17 16 15 15 14
17 17 18 19 20 23 27 31 32 32 31 26 22 23 23 23 23 23 23 23 23 21 19 18 18 18 16 16 18 20 22 23 23 23 23 22 20 19 19 18 18 18
16 16 16 16 18 20 24 28 31 32 32 29 25 24 24 22 21 23 23 23 23 22 21 20 18 17 15 15 17 20 20 20 21 22 23 23 21 20 21 20 20 20
14 14 14 14 16 18 21 26 30 31 32 31 29 27 26 24 22 22 23 23 22 21 21 20 18 16 15 15 17 19 19 18 18 20 22 23 22 22 22 21 20 19
14 13 13 13 14 15 18 22 27 30 31 32 32 30 29 29 27 25 24 25 23 22 23 22 21 19 18 18 18 19 20 18 17 18 20 21 22 22 21 20 20 20
13 13 13 13 12 14 16 18 22 27 31 32 32 32 31 30 29 26 23 24 25 25 25 24 24 22 22 22 21 20 21 21 19 19 20 20 20 20 19 19 20 22
14 13 13 13 12 13 14 16 18 23 28 31 32 32 31 31 30 28 25 24 25 27 26 25 25 24 23 24 23 21 22 23 22 23 23 22 22 21 20 19 20 21
16 15 14 13 13 13 13 15 17 20 23 27 30 31 31 31 31 31 29 26 24 25 27 28 28 28 26 25 24 23 23 24 25 25 25 25 25 24 22 22 21 21
17 16 15 14 13 13 14 14 16 18 20 22 25 27 29 30 30 30 30 29 25 25 27 28 29 31 29 26 25 25 25 26 26 27 27 27 27 26 25 24 23 22
19 17 16 15 14 14 14 14 14 16 18 20 21 24 27 27 26 27 28 28 27 26 26 26 28 30 29 28 27 27 27 27 28 28 28 28 28 28 27 26 25 24
20 19 18 17 17 17 17 16 15 16 17 19 21 23 26 26 25 26 27 29 30 29 27 26 28 30 30 30 29 28 28 28 28 29 29 29 29 29 29 28 26 26
20 20 20 20 21 21 20 19 18 18 18 19 21 23 25 26 27 28 29 31 33 33 32 30 30 32 31 29 29 29 29 29 29 28 28 29 28 28 29 29 28 27
19 20 21 21 23 23 22 21 21 21 20 19 19 20 22 25 28 30 31 31 32 33 35 34 33 33 31 28 28 29 30 31 30 28 28 29 30 30 30 30 30 30
17 19 20 21 22 23 23 22 21 21 21 21 19 19 19 19 22 26 28 29 29 30 32 34 35 36 34 31 31 32 32 32 33 32 30 31 31 32 33 33 33 32
16 17 18 19 19 19 20 21 21 22 23 23 21 20 20 19 20 22 24 25 25 26 28 30 32 34 34 33 34 34 33 34 35 35 34 33 32 32 33 34 34 33
17 18 19 18 18 18 19 20 21 22 23 24 24 24 24 24 23 23 24 24 24 24 26 28 29 29 30 31 31 31 31 32 34 35 35 33 32 31 31 32 33 33
18 19 18 17 16 18 20 21 21 22 22 23 24 25 26 25 24 23 24 26 26 25 25 27 27 27 28 29 29 29 30 31 33 35 36 35 33 32 32 32 33 33
15 16 17 16 16 17 19 21 22 21 20 20 22 24 24 24 23 23 23 24 25 26 27 28 28 27 28 28 29 29 30 31 33 35 35 34 34 33 33 33 33 34
13 13 14 15 15 15 15 16 17 15 15 16 18 20 21 22 22 22 22 23 23 25 27 29 29 29 29 29 30 30 31 32 33 34 32 31 31 32 33 34 34 34
11 11 11 12 12 13 13 13 14 14 14 15 15 16 17 18 19 20 21 22 23 24 26 28 29 29 29 30 31 31 32 33 33 32 30 30 32 33 34 34 34 34
10 9 10 10 11 12 12 13 13 13 14 14 14 15 15 16 17 18 19 20 21 22 23 25 28 29 29 30 31 31 33 34 33 31 29 31 34 34 34 35 35 35
10 10 10 10 11 11 11 12 12 12 12 12 12 13 14 14 15 16 17 17 18 19 20 21 22 24 25 27 28 30 31 32 32 32 30 31 34 35 36 36 36 37
Wind_Direction
223 222 219 217 215 209 208 210 213 216 219 223 225 223 222 224 225 224 224 227 223 218 219 223 228 234 233 228 227 225 225 226 226 229 229 226 226 228 230 235 235 228
224 223 220 219 217 213 210 210 213 216 221 225 227 229 228 229 229 227 227 230 228 224 225 227 230 236 235 230 228 227 227 228 229 232 233 232 229 226 226 230 233 234
224 224 223 221 220 216 212 212 214 217 221 224 225 226 226 228 231 230 228 229 230 230 230 231 232 233 235 233 230 229 227 228 231 233 234 238 236 230 227 225 229 235
222 224 225 224 223 220 216 215 216 217 220 223 221 220 222 228 234 234 234 235 235 234 232 233 235 233 233 234 233 230 226 227 231 233 236 241 242 239 235 232 232 234
222 225 227 226 226 224 220 218 217 217 219 220 220 220 223 231 236 238 241 242 242 240 235 234 234 231 230 232 233 232 228 228 232 234 237 242 243 242 243 243 242 241
222 224 227 228 228 226 222 219 218 217 217 217 218 220 223 230 236 240 243 245 247 248 243 239 237 232 229 231 235 235 232 232 234 236 238 240 243 244 245 247 247 247
223 225 226 229 230 229 225 221 219 218 216 214 215 219 221 225 232 235 239 244 249 250 248 247 245 240 236 237 237 235 234 235 237 238 239 241 244 246 244 245 248 248
225 229 229 230 231 230 227 223 220 218 217 215 215 217 219 223 227 232 238 243 245 245 246 249 249 244 244 246 242 235 234 237 238 240 242 244 246 247 246 248 249 247
226 227 228 230 233 232 230 225 221 219 218 218 218 218 220 225 228 231 239 242 239 241 246 250 250 248 248 251 250 242 238 239 241 243 246 248 250 251 253 255 252 247
220 219 221 226 233 235 233 227 222 220 220 221 221 222 224 226 227 229 236 241 240 242 247 249 248 249 249 250 251 248 242 241 244 248 251 254 256 258 261 262 257 252
212 216 221 227 231 234 232 228 224 222 221 222 224 225 226 226 226 227 233 239 243 245 246 245 244 247 249 246 247 250 247 244 245 249 253 257 260 262 264 264 262 259
215 219 224 227 231 232 231 227 225 225 224 224 224 225 227 228 228 228 230 235 241 244 244 244 243 245 247 245 247 253 254 250 248 249 252 256 259 262 263 263 262 263
223 228 229 231 233 233 231 227 225 227 228 228 228 228 229 230 229 228 229 233 239 243 244 245 245 245 246 248 252 255 255 253 251 251 251 253 256 259 261 260 259 260
231 235 235 234 234 231 229 228 226 226 227 228 228 227 225 225 226 226 226 231 237 242 243 241 242 244 245 248 253 253 252 253 254 252 250 251 254 257 258 258 257 258
234 235 233 232 232 230 227 225 224 227 229 229 228 226 224 224 227 229 230 231 235 239 239 237 238 241 243 246 249 249 248 251 254 251 248 250 254 255 255 255 256 259
234 235 233 233 233 232 230 228 228 228 229 230 230 230 231 231 232 233 235 234 235 237 239 239 239 240 242 245 246 245 247 250 252 251 248 249 252 253 251 252 254 259
231 234 234 236 239 240 239 238 238 235 233 233 231 229 231 234 234 234 236 237 237 239 241 242 242 242 243 244 243 244 246 249 251 252 252 253 254 254 253 253 256 261
227 232 234 236 239 241 242 243 243 240 236 236 234 229 229 234 235 235 237 239 242 243 243 243 243 243 243 244 245 245 246 247 248 251 253 254 255 256 256 256 258 261
221 228 234 239 241 241 241 241 241 241 239 239 237 234 235 239 239 237 238 242 246 247 246 245 244 244 244 245 248 248 248 248 248 249 251 252 253 254 256 257 257 259
223 226 233 241 248 249 248 244 241 241 242 242 241 241 241 242 242 241 243 247 250 251 248 246 245 246 245 246 248 250 251 252 250 249 249 251 251 251 253 256 257 258
233 234 236 237 240 246 249 249 247 247 246 246 245 245 245 245 247 247 245 246 249 250 250 249 248 247 246 246 249 250 250 251 250 248 248 250 250 250 251 253 255 257
238 240 239 236 234 236 239 241 241 241 241 243 243 243 243 242 244 245 243 243 246 248 249 250 250 250 250 250 251 251 250 249 248 247 246 247 248 250 252 253 254 256
235 237 237 240 245 247 248 249 249 246 244 242 241 241 240 240 241 244 245 246 247 247 247 249 248 249 250 251 252 253 253 252 249 246 245 245 246 247 249 252 254 255
233 237 239 245 253 256 256 257 258 260 258 254 250 248 248 249 250 250 250 250 251 251 251 252 252 251 252 253 253 253 254 254 254 252 250 251 252 249 248 250 253 255
243 249 251 253 257 258 259 260 261 263 264 262 259 257 257 259 260 259 257 256 256 256 257 257 256 256 255 256 256 256 256 257 260 260 256 255 256 256 254 253 254 256
251 255 258 259 260 261 262 265 269 274 278 275 271 269 267 268 269 268 268 267 266 265 265 264 263 261 259 259 259 259 260 261 263 264 262 258 257 259 258 257 257 257